Location: Newark
(53.2933°N, 6.3959°W)
Time: 00:17:48
(UTC+00:00)

Envisat - Pass Details

Date: 20 February 2020
Orbit: 764 x 766 km, 98.1° (Epoch: 01 April)

Event Time Altitude Azimuth Distance (km) Brightness Sun altitude
Rises 06:43:23 0° 18° (NNE) 3,248 6.4 -8.3°
Reaches altitude 10° 06:45:48 10° 24° (NNE) 2,317 5.7 -7.9°
Maximum altitude 06:50:43 46° 98° (E) 1,021 4.3 -7.2°
Drops below altitude 10° 06:55:35 10° 172° (S) 2,299 5.7 -6.5°
Sets 06:57:58 0° 178° (S) 3,220 6.4 -6.1°
